ARIANE 40+ R/B

Last updated on Thu Oct 30 2025 00:02:15 GMT+0000 (Coordinated Universal Time)

1 23561U 95021B 25302.18542494 .00000460 00000+0 16092-3 0 9993 2 23561 98.4701 10.3020 0007055 167.1784 247.2123 14.39642679600328
UTC large
Height (km)
Speed (km/s)
/
Latitude / Longitude
Inclination (degrees)
Orbital Period (minutes)
Azimuth
Elevation
Range (km)
Doppler Factor

Next 0 passes for location: London (51.5072 / 0.1276)

Sorry there are no passes over London.